Temperature
13 13 13 13 13 13 12 12 12 12 12 12 11 11 11 11 11 11 11 11 11 11 11 11 11 11 11 11 11 11 11 11 11 11 11 11 11 11 11 11 11 11 11
13 12 12 13 12 12 12 12 12 11 11 11 11 11 11 11 11 10 10 10 10 10 10 10 11 11 11 11 11 11 11 10 10 10 10 10 10 10 10 10 11 11 10
12 12 12 12 12 12 12 12 11 11 11 11 10 10 10 10 10 10 10 10 10 10 9 10 10 10 10 10 10 10 10 10 10 10 10 10 10 10 10 10 10 10 10
12 12 12 12 11 11 11 11 11 10 10 10 10 10 10 10 10 9 9 9 9 9 9 9 9 9 10 10 10 10 10 10 10 10 9 9 9 10 9 9 10 10 10
11 11 11 11 11 11 11 10 10 10 10 9 9 9 9 9 9 9 9 9 9 9 9 9 9 9 9 9 9 9 9 9 9 9 9 9 9 9 9 9 9 9 9
11 11 11 10 10 10 10 10 10 9 9 9 9 9 9 9 9 9 8 8 8 8 8 8 8 8 9 9 9 9 9 9 9 9 9 9 9 9 9 9 9 9 9
10 10 10 10 10 10 9 9 9 9 9 8 8 8 8 8 8 8 8 8 8 8 8 8 8 8 8 8 8 9 9 9 9 8 8 8 8 8 8 8 8 8 8
10 10 9 9 9 9 9 9 8 8 8 8 8 8 8 8 8 8 8 7 7 7 7 7 7 7 8 8 8 8 8 8 8 8 8 8 8 8 8 8 8 8 8
10 9 9 9 9 9 9 8 8 8 8 7 7 7 7 7 7 7 7 7 7 7 7 7 7 7 7 7 7 7 7 8 8 8 8 7 7 8 8 7 7 7 8
9 9 9 9 8 8 8 8 8 7 7 7 7 7 7 7 7 7 7 6 6 7 7 7 7 7 7 7 7 7 7 7 7 7 7 7 7 7 7 7 7 7 7
9 9 8 8 8 8 7 7 7 7 7 6 6 6 6 6 6 6 6 6 6 6 6 6 7 7 7 7 7 6 6 6 6 6 6 7 6 6 6 7 7 7 7
8 8 8 8 8 7 7 7 7 7 6 6 6 6 6 6 6 6 6 6 6 6 6 6 6 6 6 6 6 6 6 6 6 6 6 6 6 6 6 6 6 6 6
8 8 8 8 7 7 7 7 6 6 6 6 6 6 6 6 5 5 5 5 5 5 5 5 6 6 6 6 6 6 6 6 5 6 6 6 6 6 6 6 6 6 6
8 8 8 7 7 7 7 6 6 6 6 6 6 5 5 5 5 5 5 5 5 5 5 5 5 5 5 5 5 5 5 5 5 5 5 5 5 5 5 5 5 5 5
7 7 7 7 7 7 6 6 6 6 6 6 6 5 5 5 5 5 5 5 5 5 5 5 5 5 5 5 5 5 5 5 5 5 5 5 5 5 5 5 4 4 4
7 7 7 6 6 6 6 6 6 6 6 5 5 5 5 5 5 5 5 5 5 5 4 4 4 4 4 4 4 4 4 4 4 4 4 4 4 4 4 4 4 4 4
7 6 6 6 6 6 6 5 5 5 5 5 5 5 5 5 5 5 5 5 4 4 4 4 4 4 4 4 4 4 4 4 4 4 4 4 4 4 3 3 3 3 3
6 6 6 6 5 5 5 5 5 5 5 5 5 4 4 4 4 4 4 4 4 4 4 4 3 3 3 3 3 4 3 3 3 3 3 3 3 3 3 3 3 3 3
6 6 6 5 5 5 5 5 4 4 4 4 4 4 4 4 4 4 4 4 3 3 3 3 3 3 3 3 3 3 3 3 3 3 3 3 3 2 2 2 2 2 2
5 5 5 5 5 5 4 4 4 4 4 4 3 3 3 3 3 3 3 3 3 3 3 3 3 3 3 3 3 3 3 3 2 2 2 2 2 2 2 2 2 2 2
5 5 5 5 4 4 4 4 4 3 3 3 3 3 3 3 3 3 3 3 3 3 3 3 3 3 3 3 2 2 2 2 2 2 2 2 2 2 2 2 2 2 1
5 4 4 4 4 4 4 3 3 3 3 3 3 3 3 3 3 2 2 2 2 2 2 2 2 2 2 2 2 2 2 2 2 2 2 2 2 2 2 1 1 1 1
4 4 4 4 4 4 4 3 3 3 3 2 2 2 2 2 2 2 2 2 2 2 2 2 2 2 2 2 2 2 1 1 1 1 1 1 1 1 1 1 1 1 0
4 4 4 4 3 3 3 3 3 3 2 2 2 2 2 2 2 2 2 2 2 2 2 1 1 2 2 1 1 1 1 1 1 1 1 1 1 1 1 0 0 0 0
4 3 3 3 3 3 3 3 2 2 2 2 2 2 2 2 1 1 1 1 1 1 1 1 1 1 1 1 1 1 1 1 1 1 1 1 1 0 0 0 -0 -0 -0
3 3 3 3 3 2 2 2 2 2 2 2 2 1 1 1 1 1 1 1 1 1 1 1 0 0 0 0 1 1 1 1 1 1 1 0 0 0 -0 -0 -0 -1 -1
Wind_Speed
4 4 3 3 2 2 2 2 2 1 1 1 1 1 1 1 1 1 2 2 3 3 3 3 3 3 3 3 3 3 4 4 5 4 3 2 3 3 2 3 3 2 1
3 3 3 3 3 3 3 2 2 2 1 1 1 1 1 1 1 2 2 2 3 3 3 3 3 2 3 3 3 3 3 4 4 4 3 3 3 3 3 2 2 2 2
2 3 3 3 3 3 3 3 2 2 1 1 1 1 1 2 2 2 2 2 3 3 3 3 3 3 4 3 4 4 3 3 3 4 3 3 3 2 3 2 2 2 2
3 3 3 3 3 3 3 2 2 2 2 2 1 1 2 2 2 2 3 3 3 3 3 3 3 3 4 4 4 4 4 3 3 3 3 2 3 2 3 3 2 2 2
3 3 3 2 2 2 2 2 2 2 2 2 2 1 1 2 2 3 3 3 3 3 3 3 3 3 4 4 3 4 4 3 3 3 3 3 2 2 3 3 3 3 3
4 3 2 2 2 2 2 2 2 2 2 1 1 1 1 1 2 4 4 3 3 4 3 3 3 3 3 4 4 4 4 4 4 4 4 4 4 3 3 4 4 3 3
3 3 2 3 2 2 2 2 2 2 2 2 1 1 2 1 1 2 4 4 3 3 3 3 3 3 4 4 4 5 5 4 5 5 5 4 4 4 4 4 4 4 4
3 3 3 3 3 2 2 2 2 2 2 2 2 2 2 1 0 2 4 5 4 3 3 3 3 4 3 4 4 4 4 4 4 5 5 5 4 4 4 5 5 5 5
4 4 3 4 3 3 3 2 2 2 2 2 2 2 2 2 1 2 4 3 3 3 3 3 4 4 3 5 4 4 4 3 2 3 4 4 4 3 3 3 3 4 4
4 4 3 4 4 3 3 3 3 3 3 2 2 3 3 3 1 2 4 3 4 3 3 3 2 3 3 4 4 4 4 4 3 3 4 4 4 3 3 4 4 4 5
3 3 3 3 4 3 3 3 3 3 3 3 2 3 3 3 2 2 4 3 3 4 3 3 2 1 3 4 5 4 4 4 4 3 3 3 3 3 4 4 4 5 5
3 3 3 3 3 3 3 3 3 3 3 3 3 3 3 3 3 3 4 5 5 4 3 3 2 2 3 4 4 3 3 4 3 2 3 3 3 3 3 4 4 5 5
3 3 3 3 2 3 3 4 3 3 3 3 3 3 3 2 2 3 4 5 5 4 3 3 3 3 4 4 3 3 3 3 3 3 3 3 3 3 3 3 4 4 5
3 3 2 2 2 3 3 3 3 3 3 3 3 3 3 3 3 3 3 4 4 4 4 2 2 2 2 2 2 3 2 2 3 3 3 3 2 2 2 2 3 3 4
3 2 2 2 2 2 2 2 3 3 3 4 4 3 3 4 3 3 4 4 4 3 4 3 2 2 2 2 2 2 2 2 2 2 2 2 2 2 2 2 2 3 3
2 2 2 1 1 2 2 1 2 1 2 2 3 3 2 2 2 3 4 4 4 4 4 3 3 3 3 3 3 2 2 2 2 2 2 2 2 3 2 2 2 3 3
2 2 2 2 2 2 2 2 1 1 1 0 1 2 2 2 1 1 2 2 3 4 3 3 3 3 4 3 3 2 2 2 2 2 2 2 2 2 2 2 2 3 3
2 1 2 2 2 2 2 2 2 2 1 1 1 1 1 1 1 1 2 2 2 3 3 3 3 3 4 3 3 2 2 2 2 2 2 2 2 2 2 3 3 3 4
2 2 2 1 1 1 2 2 2 2 2 1 1 1 1 2 1 1 1 2 3 3 3 3 3 3 3 3 3 2 2 2 2 2 3 3 3 3 3 3 3 4 4
2 1 1 2 2 2 2 2 2 2 2 1 1 1 1 1 2 1 2 3 3 3 3 3 3 3 3 3 3 3 3 3 3 3 3 3 3 3 3 4 4 4 4
2 2 3 2 2 2 2 2 2 2 2 2 2 1 1 2 2 2 2 2 3 3 3 3 3 3 3 3 3 3 4 3 3 3 3 3 3 3 4 4 4 4 4
2 2 3 3 3 3 3 3 3 3 3 3 2 1 1 3 3 3 3 3 3 3 3 3 3 3 3 3 3 4 4 4 4 3 4 4 4 4 4 4 4 4 4
2 3 3 3 3 3 3 3 3 3 3 3 3 2 2 3 3 3 3 3 3 3 3 3 3 3 3 3 4 4 4 4 4 4 4 4 4 4 4 4 5 5 5
3 3 3 3 3 3 3 3 3 3 3 3 3 3 3 3 3 3 3 3 3 3 3 3 4 4 5 4 4 4 4 5 5 5 6 5 5 5 5 5 5 6 6
3 3 3 3 3 3 3 4 3 4 3 3 3 3 3 3 3 3 3 3 4 4 4 4 4 5 6 6 5 5 4 5 6 6 5 5 6 6 6 6 6 6 6
3 3 4 3 3 3 4 4 4 4 4 4 4 3 3 4 4 4 3 3 4 4 4 4 5 6 6 6 6 6 6 6 6 6 5 5 5 5 5 5 6 6 6
Wind_Direction
186 188 187 186 189 193 201 202 216 215 210 235 256 266 281 279 280 278 279 284 277 277 271 264 261 267 260 257 255 254 255 259 261 267 263 264 253 256 250 264 264 260 236
188 195 195 196 197 200 205 206 210 218 217 239 248 265 283 284 287 289 288 278 275 278 273 272 272 262 263 264 256 252 252 252 250 258 271 269 263 263 262 257 260 263 264
187 195 199 209 213 212 213 210 207 209 215 238 240 262 275 281 285 283 284 289 286 279 274 273 276 267 261 261 250 250 248 248 245 249 263 273 262 266 266 261 263 281 273
192 197 206 217 226 226 218 205 208 207 207 224 238 244 254 271 280 285 285 283 290 294 288 281 279 280 274 270 255 248 244 238 234 243 253 262 256 256 251 251 259 269 269
196 206 218 222 218 210 201 199 195 207 216 221 230 243 266 275 302 306 291 284 283 288 290 290 297 307 316 295 275 256 244 240 237 237 242 253 261 256 254 253 260 264 250
203 207 209 198 184 194 204 198 190 205 219 224 237 251 263 294 358 327 301 276 273 275 279 284 288 281 294 271 267 270 260 244 240 238 241 250 258 265 269 266 263 260 256
208 200 192 190 191 196 195 186 189 203 214 231 246 267 269 278 18 301 298 285 276 275 277 282 288 299 291 282 247 232 237 245 257 254 250 258 261 263 262 264 263 259 264
211 201 190 190 199 201 203 202 203 206 218 234 241 251 271 287 266 283 287 267 267 271 278 286 290 299 311 303 276 255 249 244 244 250 260 268 276 276 260 261 267 261 256
215 213 205 202 205 205 205 208 213 211 218 236 238 240 247 246 248 286 284 264 262 269 279 288 288 291 332 312 283 267 257 252 234 249 289 298 312 310 290 264 267 257 259
217 220 216 211 212 217 213 204 208 209 215 228 230 239 244 252 237 263 279 264 267 272 278 280 289 300 320 304 275 268 263 266 265 248 249 258 266 254 243 249 255 256 260
212 217 210 210 212 217 217 205 199 200 213 228 232 244 246 247 231 243 275 269 272 273 275 280 290 275 290 288 282 273 284 289 267 260 259 260 266 267 254 249 252 252 255
201 203 204 207 213 211 205 202 201 194 207 221 229 238 243 240 247 239 256 275 292 274 276 280 294 283 274 274 277 287 283 275 270 263 262 263 266 269 265 263 254 249 251
197 200 204 203 209 205 203 198 201 202 211 222 229 237 243 249 244 241 243 253 273 272 278 303 305 275 264 259 252 257 248 249 254 256 264 270 272 276 279 278 270 258 253
201 202 206 203 205 208 208 209 208 211 219 226 230 240 247 249 255 254 251 248 249 262 272 261 251 253 273 280 250 238 245 255 257 257 269 277 280 279 276 277 275 271 263
195 197 204 202 195 196 201 223 230 236 250 247 237 239 244 248 260 280 266 258 262 264 266 258 258 257 267 286 269 265 257 243 248 262 267 274 273 269 272 278 275 268 267
189 190 196 197 199 189 186 181 39 343 347 319 307 284 271 297 295 274 274 273 264 251 249 245 253 262 266 273 265 255 255 257 261 261 264 270 277 273 274 276 265 266 272
197 196 197 198 197 200 197 201 208 44 60 64 346 325 328 347 323 276 270 265 246 230 235 248 259 265 270 272 270 255 253 260 269 270 273 276 278 281 282 276 273 270 269
210 190 192 200 201 212 220 219 214 222 254 304 339 354 353 349 312 285 271 254 240 227 241 251 259 266 270 270 269 263 257 259 260 266 268 274 280 281 282 281 276 275 271
217 205 197 202 205 216 230 232 227 232 245 262 298 357 1 324 295 283 244 252 256 251 249 254 261 266 269 271 271 269 265 263 266 266 269 272 272 272 274 281 282 281 272
219 193 220 215 211 216 226 232 235 240 249 258 273 296 326 297 295 296 264 268 261 258 259 259 264 269 271 272 269 266 267 268 268 265 269 273 273 269 268 271 278 282 279
220 201 201 218 217 216 225 233 235 238 245 254 262 304 335 263 268 271 267 266 268 270 269 268 269 271 271 273 272 265 264 266 266 267 269 271 273 273 273 272 274 275 279
219 216 217 223 223 221 226 231 235 238 244 253 266 255 243 260 268 271 271 273 273 276 278 276 273 275 275 270 272 271 266 264 265 264 263 265 268 269 267 264 267 272 276
220 220 220 224 225 220 224 228 232 235 241 247 254 254 245 259 266 269 274 278 280 279 278 275 273 274 279 278 271 268 270 272 274 270 263 261 260 261 260 258 260 264 267
221 221 224 228 232 233 233 235 235 239 243 247 252 255 253 253 261 268 272 273 272 273 275 274 274 277 279 280 276 271 275 286 287 275 266 260 256 256 256 257 259 259 259
227 228 229 230 232 233 234 236 237 240 242 246 249 252 257 257 258 262 266 267 271 272 271 273 275 276 276 273 275 279 292 291 285 284 275 263 256 253 253 253 255 259 259
232 233 236 235 236 237 238 240 243 246 247 249 250 254 257 258 258 260 263 267 269 270 270 271 275 278 279 275 277 286 286 278 276 277 273 263 259 257 258 257 258 257 258
Height
1522 1523 1524 1525 1526 1526 1527 1527 1527 1527 1527 1527 1526 1526 1525 1525 1524 1524 1523 1522 1522 1521 1521 1520 1520 1519 1519 1518 1518 1518 1518 1518 1518 1517 1517 1516 1516 1515 1515 1514 1514 1514 1513
1520 1521 1521 1522 1523 1523 1524 1524 1524 1524 1524 1524 1524 1524 1523 1523 1522 1521 1521 1520 1519 1518 1518 1517 1517 1516 1516 1515 1515 1515 1515 1515 1515 1514 1514 1514 1514 1513 1513 1512 1512 1512 1511
1517 1518 1519 1519 1520 1520 1520 1520 1520 1521 1521 1521 1521 1521 1520 1520 1519 1519 1518 1517 1516 1516 1515 1515 1514 1514 1513 1512 1512 1512 1512 1512 1512 1512 1511 1511 1511 1510 1510 1510 1510 1509 1509
1515 1515 1516 1516 1516 1516 1517 1517 1517 1517 1518 1518 1518 1518 1518 1517 1517 1516 1516 1515 1514 1513 1512 1512 1511 1511 1510 1510 1509 1509 1509 1509 1509 1509 1509 1508 1508 1507 1508 1508 1507 1506 1506
1512 1512 1512 1513 1513 1513 1513 1513 1514 1514 1514 1515 1515 1515 1515 1514 1514 1513 1513 1512 1511 1510 1510 1509 1509 1508 1507 1507 1506 1506 1506 1506 1506 1506 1506 1506 1505 1505 1505 1505 1504 1504 1504
1509 1509 1509 1510 1510 1510 1510 1510 1510 1511 1511 1512 1512 1512 1511 1511 1510 1510 1509 1509 1508 1508 1507 1506 1506 1505 1504 1503 1503 1503 1503 1503 1503 1503 1503 1503 1503 1502 1502 1502 1502 1502 1502
1506 1506 1506 1506 1506 1507 1507 1507 1507 1508 1508 1508 1508 1508 1508 1508 1507 1507 1506 1506 1505 1505 1504 1503 1502 1502 1501 1501 1500 1500 1500 1499 1500 1500 1500 1500 1500 1500 1499 1499 1499 1499 1499
1502 1503 1503 1503 1503 1504 1504 1504 1504 1505 1505 1505 1505 1505 1505 1505 1504 1504 1503 1503 1502 1502 1501 1500 1500 1499 1498 1497 1497 1497 1496 1496 1496 1496 1497 1497 1497 1497 1497 1497 1496 1496 1496
1499 1499 1500 1500 1500 1500 1500 1500 1501 1501 1502 1502 1502 1502 1502 1502 1502 1501 1500 1500 1499 1499 1498 1497 1496 1496 1495 1494 1494 1494 1493 1493 1493 1493 1493 1493 1493 1493 1493 1493 1493 1493 1493
1496 1496 1497 1497 1497 1497 1497 1497 1498 1498 1499 1499 1499 1499 1499 1499 1499 1498 1497 1497 1496 1496 1495 1494 1493 1492 1492 1491 1491 1491 1490 1490 1490 1489 1489 1489 1489 1489 1489 1489 1490 1490 1490
1493 1493 1494 1494 1494 1495 1495 1495 1495 1495 1496 1497 1497 1496 1496 1496 1496 1495 1494 1494 1493 1493 1492 1491 1490 1489 1489 1488 1488 1487 1487 1487 1487 1487 1486 1486 1486 1486 1486 1486 1486 1486 1486
1490 1491 1491 1491 1492 1492 1492 1492 1492 1493 1493 1493 1493 1493 1493 1493 1492 1491 1491 1491 1490 1490 1489 1488 1487 1486 1485 1485 1484 1484 1484 1484 1484 1484 1483 1483 1483 1482 1482 1482 1482 1482 1482
1488 1488 1488 1488 1489 1489 1489 1489 1490 1490 1490 1490 1490 1490 1490 1489 1489 1488 1487 1487 1487 1486 1486 1485 1484 1483 1483 1482 1481 1480 1480 1480 1480 1480 1480 1480 1479 1479 1479 1478 1478 1478 1478
1485 1485 1485 1485 1486 1486 1486 1487 1487 1487 1487 1487 1487 1487 1486 1486 1485 1485 1484 1483 1483 1483 1483 1482 1481 1480 1479 1478 1478 1477 1477 1477 1477 1477 1477 1477 1476 1476 1475 1474 1474 1473 1473
1483 1483 1483 1483 1483 1483 1484 1484 1484 1484 1484 1484 1483 1483 1483 1483 1482 1481 1481 1480 1480 1479 1479 1479 1478 1477 1476 1475 1475 1474 1474 1474 1474 1474 1474 1473 1473 1472 1472 1471 1471 1470 1470
1480 1480 1480 1480 1480 1481 1481 1481 1481 1481 1481 1480 1480 1480 1480 1480 1479 1478 1477 1477 1476 1476 1476 1476 1475 1474 1473 1472 1472 1471 1471 1471 1471 1471 1471 1470 1470 1469 1469 1468 1468 1467 1467
1479 1478 1478 1478 1478 1478 1478 1478 1478 1478 1478 1477 1477 1477 1476 1476 1475 1474 1474 1474 1473 1473 1473 1473 1472 1471 1471 1470 1469 1468 1468 1468 1468 1468 1468 1467 1467 1466 1466 1465 1465 1464 1463
1477 1477 1476 1476 1476 1476 1476 1476 1475 1475 1475 1474 1474 1474 1473 1472 1472 1471 1471 1470 1470 1470 1470 1469 1469 1468 1467 1467 1466 1465 1465 1465 1465 1465 1464 1464 1464 1463 1463 1462 1462 1461 1460
1475 1475 1475 1474 1474 1474 1474 1474 1473 1473 1473 1473 1472 1471 1470 1469 1468 1468 1467 1467 1467 1466 1466 1466 1465 1465 1464 1464 1463 1463 1462 1462 1462 1462 1461 1461 1461 1460 1460 1459 1458 1458 1457
1473 1473 1473 1472 1473 1472 1472 1472 1471 1471 1471 1471 1470 1469 1468 1467 1466 1465 1464 1464 1464 1464 1463 1463 1462 1462 1461 1461 1460 1460 1459 1459 1459 1458 1458 1458 1457 1457 1456 1456 1455 1454 1453
1471 1470 1470 1470 1470 1470 1470 1470 1469 1469 1469 1468 1468 1467 1465 1464 1464 1463 1462 1461 1461 1461 1460 1460 1459 1459 1458 1458 1457 1457 1456 1456 1455 1455 1455 1454 1454 1454 1453 1453 1452 1451 1450
1468 1468 1468 1468 1468 1468 1468 1467 1467 1467 1466 1466 1465 1464 1463 1462 1462 1461 1460 1459 1458 1458 1457 1457 1456 1455 1455 1454 1454 1453 1453 1452 1452 1452 1451 1451 1451 1450 1450 1449 1449 1448 1447
1465 1465 1465 1465 1465 1465 1465 1465 1464 1464 1464 1463 1462 1461 1460 1460 1459 1458 1457 1456 1456 1455 1454 1453 1453 1452 1451 1451 1450 1450 1450 1449 1449 1448 1448 1447 1447 1446 1446 1445 1445 1444 1444
1462 1462 1462 1461 1461 1461 1461 1461 1461 1461 1460 1460 1459 1458 1458 1457 1456 1455 1454 1453 1453 1452 1451 1450 1449 1449 1448 1447 1447 1446 1446 1446 1445 1444 1444 1444 1443 1443 1442 1442 1441 1440 1440
1459 1458 1458 1458 1458 1458 1458 1458 1458 1457 1457 1456 1456 1455 1454 1454 1453 1452 1451 1450 1449 1449 1448 1447 1446 1445 1445 1444 1443 1443 1442 1442 1441 1441 1440 1440 1439 1439 1438 1438 1437 1437 1436
1455 1455 1455 1455 1455 1454 1454 1454 1454 1453 1453 1452 1452 1452 1451 1450 1449 1449 1448 1447 1446 1445 1444 1443 1443 1442 1441 1440 1439 1438 1438 1437 1437 1437 1436 1435 1435 1434 1434 1433 1433 1433 1432